Soldotna, AK

4:08 PM AKST on December 05, 2019 (GMT -0900)
Soldotna

Weather History for PASX - October, 2019

Change the Weather History Date:

Thursday, October 17, 2019

  Actual Average Record
Temperature  
Mean Temperature 34 °F -  
Max Temperature 39 °F 41 °F 59 °F (1969)
Min Temperature 28 °F 27 °F 1 °F (1996)
Degree Days  
Heating Degree Days 32    
Moisture  
Dew Point 30 °F    
Average Humidity 94    
Maximum Humidity 100    
Minimum Humidity 79    
Precipitation  
Precipitation 0.00 in - - ()
Sea Level Pressure  
Sea Level Pressure 29.10 in    
Wind  
Wind Speed 0 mph (ESE)    
Max Wind Speed 4 mph    
Max Gust Speed -    
Visibility 8 miles    
Events Fog , Rain    
Averages and records for this station are not official NWS values.
T = Trace of Precipitation, MM = Missing Value Source: NWS Daily Summary

Daily Weather History Graph

Daily Weather History Graph

Search for Another Location

Airport or City:

Astronomy

Oct. 17, 2019 Rise Set
Actual Time 8:49 AM AKDT 6:47 PM AKDT
Civil Twilight 8:06 AM AKDT 7:31 PM AKDT
Nautical Twilight 7:17 AM AKDT 8:19 PM AKDT
Astronomical Twilight 6:28 AM AKDT 9:08 PM AKDT
Moon 8:29 PM AKDT (10/17) 1:26 PM AKDT (10/17)
Length of Visible Light 11h 24m
Length of Day
9h 58m
Waning Gibbous, 85% of the Moon is Illuminated
Oct 17
Waning Gibbous
Oct 21
Last Quarter
Oct 27
New
Nov 4
First Quarter
Nov 12
Full

Hourly Weather History & Observations

Time (AKDT) Temp. Windchill Dew Point Humidity Pressure Visibility Wind Dir Wind Speed Gust Speed Precip Events Conditions
12:08 AM 32.0 °F - 30.2 °F 93% 29.08 in 10.0 mi Calm Calm - N/A   Overcast
12:21 AM 32.0 °F - 30.2 °F 93% 29.08 in 10.0 mi Calm Calm - N/A   Overcast
12:43 AM 32.0 °F - 30.2 °F 93% 29.08 in 10.0 mi Calm Calm - N/A   Overcast
12:56 AM 32.0 °F - 30.0 °F 92% 29.11 in 10.0 mi Calm Calm - 0.00 in   Overcast
1:39 AM 32.0 °F - 30.2 °F 93% 29.08 in 10.0 mi Calm Calm - 0.00 in   Mostly Cloudy
1:56 AM 32.0 °F - 30.0 °F 92% 29.11 in 10.0 mi Calm Calm - 0.00 in   Partly Cloudy
2:39 AM 30.2 °F - 28.4 °F 93% 29.08 in 10.0 mi Calm Calm - N/A   Mostly Cloudy
2:56 AM 28.9 °F 25.2 °F 27.0 °F 92% 29.11 in 6.0 mi SSE 3.5 mph - N/A   Mostly Cloudy
3:15 AM 28.4 °F - 28.4 °F 100% 29.08 in 10.0 mi Calm Calm - N/A   Partly Cloudy
3:42 AM 28.4 °F - 26.6 °F 93% 29.08 in 2.0 mi Calm Calm - N/A   Mostly Cloudy
3:45 AM 28.4 °F - 26.6 °F 93% 29.08 in 1.0 mi Calm Calm - N/A   Mostly Cloudy
3:49 AM 28.4 °F - 26.6 °F 93% 29.08 in 0.5 mi Calm Calm - N/A Fog Light Freezing Fog
3:56 AM 28.0 °F - 27.0 °F 96% 29.11 in 0.5 mi Calm Calm - N/A Fog Light Freezing Fog
4:27 AM 28.4 °F 24.6 °F 28.4 °F 100% 29.08 in 1.0 mi South 3.5 mph - N/A   Overcast
4:32 AM 28.4 °F 24.6 °F 26.6 °F 93% 29.08 in 2.0 mi South 3.5 mph - N/A   Overcast
4:44 AM 28.4 °F - 26.6 °F 93% 29.08 in 10.0 mi Calm Calm - N/A   Overcast
4:56 AM 28.9 °F - 28.0 °F 96% 29.11 in 10.0 mi Calm Calm - N/A   Overcast
5:53 AM 30.2 °F - 28.4 °F 93% 29.08 in 10.0 mi Calm Calm - N/A   Overcast
5:56 AM 30.0 °F - 28.0 °F 92% 29.11 in 10.0 mi Calm Calm - N/A   Overcast
6:56 AM 30.0 °F - 28.9 °F 96% 29.11 in 10.0 mi Calm Calm - N/A   Overcast
7:56 AM 30.0 °F - 28.0 °F 92% 29.11 in 10.0 mi Calm Calm - N/A   Clear
8:56 AM 28.9 °F - 28.0 °F 96% 29.11 in 10.0 mi Calm Calm - N/A   Partly Cloudy
9:56 AM 30.0 °F - 28.9 °F 96% 29.12 in 10.0 mi Calm Calm - N/A   Overcast
10:24 AM 30.2 °F 26.7 °F 30.2 °F 100% 29.09 in 10.0 mi NE 3.5 mph - N/A   Overcast
10:56 AM 33.1 °F - 32.0 °F 96% 29.13 in 10.0 mi Calm Calm - N/A   Overcast
11:31 AM 33.8 °F - 33.8 °F 100% 29.09 in 10.0 mi Calm Calm - N/A   Overcast
11:56 AM 35.1 °F 32.2 °F 33.1 °F 92% 29.12 in 10.0 mi East 3.5 mph - N/A   Overcast
12:56 PM 37.0 °F - 34.0 °F 89% 29.12 in 10.0 mi Calm Calm - N/A   Overcast
2:56 PM 39.9 °F 37.8 °F 34.0 °F 79% 29.11 in 10.0 mi East 3.5 mph - 0.00 in   Overcast
4:56 PM 39.0 °F - 34.0 °F 82% 29.10 in 10.0 mi Calm Calm - N/A   Overcast
5:56 PM 39.0 °F - 35.1 °F 86% 29.10 in 10.0 mi Calm Calm - N/A   Overcast
6:56 PM 36.0 °F - 35.1 °F 97% 29.09 in 10.0 mi Calm Calm - N/A   Overcast
7:56 PM 34.0 °F - 33.1 °F 96% 29.09 in 10.0 mi Calm Calm - N/A   Clear
8:56 PM 33.1 °F - 32.0 °F 96% 29.09 in 10.0 mi Calm Calm - N/A   Clear
9:56 PM 33.1 °F - 32.0 °F 96% 29.10 in 10.0 mi Calm Calm - N/A   Clear
10:56 PM 33.1 °F - 32.0 °F 96% 29.09 in 10.0 mi Calm Calm - 0.00 in Rain Light Rain
11:56 PM 33.1 °F - 32.0 °F 96% 29.10 in 10.0 mi Calm Calm - 0.00 in   Clear